Location: Worth Mountain WMA
(34.9569°N, 81.4819°W)
Time: 20:46:18
(UTC-05:00)

Cosmos 1025 Rocket - Pass Details

Date: 18 August 2017
Orbit: 594 x 619 km, 82.5° (Epoch: 22 November)

Event Time Altitude Azimuth Distance (km) Brightness Sun altitude
Rises 22:13:51 0° 357° (N) 2,839 7.0 -23.5°
Reaches altitude 10° 22:16:05 10° 0° (N) 1,933 6.0 -23.9°
Enters shadow 22:19:24 49° 29° (NNE) 774 3.5 -24.4°
